Location: Malvern Link
(52.1333°N, 2.3000°W)
Time: 07:11:00
(UTC+00:00)

Cosmos 1634 Rocket - Pass Details

Date: 06 December 2021
Orbit: 959 x 993 km, 82.9° (Epoch: 24 January)

Event Time Altitude Azimuth Distance (km) Brightness Sun altitude
Exits shadow 04:58:11 56° 328° (NNW) 1,161 4.1 -27.0°
Maximum altitude 04:59:31 74° 264° (W) 1,021 3.8 -26.8°
Drops below altitude 10° 05:05:43 10° 181° (S) 2,710 6.3 -25.8°
Sets 05:08:12 0° 179° (S) 3,648 7.1 -25.5°
